Location: Peebles
(55.6412°N, 3.1714°W)
Time: 10:01:55
(UTC+01:00)

NOAA 16 DEB - Visible Passes

Search period start: 26 June 2022 00:00
Search period end: 06 July 2022 00:00
Orbit: 837 x 849 km, 98.7° (Epoch: 26 June)

Date Brightness Start Highest point End Pass type
(mag) Time Alt. Az. Time Alt. Az. Time Alt. Az.
26 Jun ? 23:11:34 10° SSW 23:16:35 37° W 23:21:39 10° NNW visible
27 Jun ? 22:57:19 10° S 23:02:33 46° W 23:07:49 10° NNW visible
29 Jun ? 00:28:23 10° W 00:30:18 12° W 00:32:13 10° WNW visible
30 Jun ? 00:13:02 10° WSW 00:16:05 15° W 00:19:09 10° NW visible
30 Jun ? 23:58:08 10° SW 00:01:54 19° W 00:05:42 10° NW visible
01 Jul ? 23:43:27 10° SW 23:47:45 23° W 23:52:04 10° NW visible
02 Jul ? 23:28:56 10° SSW 23:33:37 29° W 23:38:20 10° NNW visible
03 Jul ? 23:14:32 10° SSW 23:19:31 36° W 23:24:32 10° NNW visible
04 Jul ? 23:00:15 10° S 23:05:26 44° W 23:10:40 10° NNW visible
